Flag for Netherlands Weather past 2 weeks in Leiden, Netherlands

Now
48 °F

Broken clouds.


Feels Like: 45 °F
Forecast: 46 / 49 °F
Wind: 8 mph from West

Location: Rotterdam Zestienhoven Airport

Current Time: Dec 19, 2014 at 12:17:31 PM

Latest Report: Dec 19, 2014 at 11:55 AM


Visibility: N/A

Pressure: 29.83 "Hg

Humidity: 94%

Dew point: 46 °F

Location of LeidenLocation

Historic Weather in Leiden — Graph

°F

Leiden temperature yesterday

Maximum temperature yesterday: 54 °F (at 10:25 AM)
Minimum temperature yesterday: 50 °F (at 12:25 AM)
Average temperature yesterday: 53 °F

Past Weeks' High & Low Weather Summary

 TemperatureHumidityPressure
High54 °F (Dec 18, 10:25 AM)100% (Dec 5, 5:55 PM)30.33 "Hg (Dec 5, 5:55 PM)
Low30 °F (Dec 4, 10:25 AM)62% (Dec 10, 12:25 PM)29.30 "Hg (Dec 12, 8:25 AM)
Average43 °F88%29.90 "Hg
* Reported Dec 4 10:25 AM — Dec 19 10:55 AM, Leiden, Weather by CustomWeather, © 2014

Note: Actual official high and low records may vary slightly from our data, if they occured in-between our weather recording intervals... More about our weather records

Advertising

Leiden weather history for previous 24 hours

 ConditionsComfort  
Time TempWeatherWind HumidityBarometerVisibility
10:55 AM
Dec 19
48 °FRain showers. Mostly cloudy.9 mph94%29.80 "HgN/A
10:25 AM48 °FDrizzle. Partly sunny.12 mph100%29.80 "Hg4 mi
9:55 AM50 °FDrizzle. Mostly cloudy.13 mph94%29.77 "Hg2 mi
9:25 AM54 °FSprinkles. Broken clouds.24 mph94%29.74 "Hg3 mi
8:55 AM54 °FSprinkles. Broken clouds.28 mph94%29.74 "Hg6 mi
8:25 AM54 °FLight rain. Passing clouds.28 mph94%29.71 "HgN/A
7:55 AM54 °FRain showers. Passing clouds.26 mph94%29.74 "Hg5 mi
7:25 AM54 °FRain. Partly cloudy.25 mph94%29.74 "Hg2 mi
6:55 AM54 °FSprinkles. Passing clouds.29 mph94%29.74 "Hg2 mi
6:25 AM54 °FLight rain. Passing clouds.30 mph94%29.74 "Hg4 mi
5:55 AM54 °FSprinkles. Partly cloudy.29 mph94%29.74 "Hg2 mi
5:25 AM54 °FLight rain. Mostly cloudy.36 mph94%29.77 "HgN/A
4:55 AM54 °FSprinkles. Overcast.28 mph94%29.77 "Hg4 mi
4:25 AM54 °FRain showers. Mostly cloudy.31 mph94%29.77 "Hg4 mi
3:55 AM54 °FOvercast.29 mph88%29.77 "HgN/A
3:25 AM54 °FOvercast.31 mph88%29.80 "HgN/A
2:55 AM54 °FLow clouds.29 mph88%29.80 "Hg6 mi
2:25 AM54 °FMostly cloudy.28 mph88%29.80 "HgN/A
1:55 AM54 °FOvercast.30 mph88%29.80 "HgN/A
1:25 AM54 °FMostly cloudy.29 mph88%29.80 "HgN/A
12:25 AM54 °FMostly cloudy.26 mph88%29.80 "HgN/A
11:55 PM
Dec 18
54 °FMostly cloudy.25 mph88%29.80 "HgN/A
11:25 PM54 °FPartly cloudy.26 mph88%29.80 "HgN/A
10:55 PM54 °FPassing clouds.29 mph88%29.80 "HgN/A
10:25 PM54 °FMostly cloudy.29 mph88%29.80 "HgN/A
9:25 PM54 °FMostly cloudy.28 mph94%29.80 "HgN/A
8:55 PM54 °FMostly cloudy.30 mph94%29.80 "Hg4 mi
8:25 PM54 °FOvercast.29 mph88%29.80 "HgN/A
7:55 PM54 °FOvercast.26 mph88%29.80 "HgN/A
6:55 PM54 °FMostly cloudy.29 mph88%29.80 "HgN/A
6:25 PM54 °FMostly cloudy.26 mph88%29.80 "HgN/A
5:55 PM54 °FMostly cloudy.30 mph88%29.80 "HgN/A
5:25 PM54 °FMostly cloudy.30 mph88%29.77 "HgN/A
4:55 PM52 °FMostly cloudy.29 mph94%29.77 "HgN/A
4:25 PM52 °FLow clouds.30 mph94%29.77 "HgN/A
3:25 PM54 °FLow clouds.24 mph94%29.77 "HgN/A
2:55 PM54 °FCloudy.23 mph94%29.77 "HgN/A
2:25 PM54 °FPartly sunny.22 mph94%29.77 "HgN/A
1:55 PM54 °FMore clouds than sun.22 mph94%29.77 "HgN/A
1:25 PM54 °FCloudy.22 mph94%29.77 "HgN/A
12:55 PM54 °FMostly cloudy.21 mph94%29.77 "HgN/A
12:25 PM54 °FMostly cloudy.21 mph94%29.80 "HgN/A
Weather by CustomWeather, © 2014

See weather overviewHow to use our weather pages